This is the latest recevied weather packets stored in our database for station/object W2JGA. If no packets are shown the sender has not sent any weather packets the latest 10 day(s).
| Time | Temp. | Humidity | Pressure | Rain* | Wind** | Luminosity | Snow |
|---|---|---|---|---|---|---|---|
| 1777920398 | 26.67° C | 28% | 1015.8 hPa | 0 mm | - | 349 W/m² | - |
| 1777920093 | 26.67° C | 28% | 1016.1 hPa | 0 mm | - | 490 W/m² | - |
| 1777919790 | 26.11° C | 28% | 1016.1 hPa | 0 mm | - | 397 W/m² | - |
| 1777919488 | 25.56° C | 30% | 1016.5 hPa | 0 mm | - | 382 W/m² | - |
| 1777919185 | 26.11° C | 30% | 1016.5 hPa | 0 mm | - | 261 W/m² | - |
| 1777918883 | 26.11° C | 30% | 1016.5 hPa | 0 mm | - | 278 W/m² | - |
| 1777918580 | 26.11° C | 30% | 1016.1 hPa | 0 mm | - | 341 W/m² | - |
| 1777918277 | 26.67° C | 29% | 1016.5 hPa | 0 mm | - | 432 W/m² | - |
| 1777917977 | 26.11° C | 30% | 1016.5 hPa | 0 mm | - | 484 W/m² | - |
| 1777917675 | 25.56° C | 30% | 1016.5 hPa | 0 mm | - | 358 W/m² | - |
| 1777917372 | 25.56° C | 30% | 1016.5 hPa | 0 mm | - | 414 W/m² | - |
| 1777917068 | 25.56° C | 30% | 1016.5 hPa | 0 mm | - | 477 W/m² | - |
| 1777916767 | 25.56° C | 31% | 1016.5 hPa | 0 mm | - | 402 W/m² | - |
| 1777916463 | 25.56° C | 30% | 1016.5 hPa | 0 mm | - | 428 W/m² | - |
| 1777916160 | 25° C | 31% | 1016.8 hPa | 0 mm | - | 428 W/m² | - |
| 1777915858 | 25° C | 31% | 1016.5 hPa | 0 mm | - | 389 W/m² | - |
| 1777915553 | 25° C | 31% | 1016.5 hPa | 0 mm | - | 327 W/m² | - |
| 1777915250 | 25° C | 32% | 1016.5 hPa | 0 mm | - | 350 W/m² | - |
| 1777914947 | 24.44° C | 32% | 1016.5 hPa | 0 mm | - | 313 W/m² | - |
| 1777914644 | 24.44° C | 32% | 1016.5 hPa | 0 mm | - | 271 W/m² | - |
| 1777914339 | 24.44° C | 32% | 1016.5 hPa | 0 mm | - | 251 W/m² | - |
| 1777914038 | 24.44° C | 32% | 1016.8 hPa | 0 mm | - | 271 W/m² | - |
| 1777913733 | 24.44° C | 32% | 1016.5 hPa | 0 mm | - | 284 W/m² | - |
| 1777913430 | 24.44° C | 33% | 1016.5 hPa | 0 mm | - | 310 W/m² | - |
| 1777913127 | 24.44° C | 33% | 1016.5 hPa | 0 mm | - | 244 W/m² | - |
* Rain latest hour (hover to see other rain measurements)
** Current wind speed in m/s (hover to see current wind gust speed)